Year,Month,Day,Hour,Minute,Value (Times are PST for temperature in C)
2016,08,21,00,00,18.20
2016,08,21,00,01,18.20
2016,08,21,00,02,18.20
2016,08,21,00,03,18.20
2016,08,21,00,04,18.10
2016,08,21,00,05,18.10
2016,08,21,00,06,18.10
2016,08,21,00,07,18.10
2016,08,21,00,08,18.10
2016,08,21,00,09,18.10
2016,08,21,00,10,18.10
2016,08,21,00,11,18.10
2016,08,21,00,12,18.10
2016,08,21,00,13,18.10
2016,08,21,00,14,18.10
2016,08,21,00,15,18.10
2016,08,21,00,16,18.10
2016,08,21,00,17,18.10
2016,08,21,00,18,18.10
2016,08,21,00,19,18.10
2016,08,21,00,20,18.10
2016,08,21,00,21,18.10
2016,08,21,00,22,18.10
2016,08,21,00,23,18.10
2016,08,21,00,24,18.10
2016,08,21,00,25,18.10
2016,08,21,00,26,18.10
2016,08,21,00,27,18.10
2016,08,21,00,28,18.00
2016,08,21,00,29,18.00
2016,08,21,00,30,18.00
2016,08,21,00,31,18.00
2016,08,21,00,32,18.00
2016,08,21,00,33,17.90
2016,08,21,00,34,17.90
2016,08,21,00,35,17.90
2016,08,21,00,36,17.90
2016,08,21,00,37,17.90
2016,08,21,00,38,17.90
2016,08,21,00,39,17.90
2016,08,21,00,40,17.90
2016,08,21,00,41,17.90
2016,08,21,00,42,17.90
2016,08,21,00,43,17.90
2016,08,21,00,44,17.90
2016,08,21,00,45,17.90
2016,08,21,00,46,17.90
2016,08,21,00,47,17.90
2016,08,21,00,48,17.90
2016,08,21,00,49,17.90
2016,08,21,00,50,17.90
2016,08,21,00,51,17.90
2016,08,21,00,52,17.90
2016,08,21,00,53,17.90
2016,08,21,00,54,17.90
2016,08,21,00,55,17.90
2016,08,21,00,56,18.00
2016,08,21,00,57,17.90
2016,08,21,00,58,17.90
2016,08,21,00,59,17.90
2016,08,21,01,00,17.90
2016,08,21,01,01,17.90
2016,08,21,01,02,17.90
2016,08,21,01,03,17.90
2016,08,21,01,04,17.90
2016,08,21,01,05,17.90
2016,08,21,01,06,17.90
2016,08,21,01,07,17.90
2016,08,21,01,08,17.90
2016,08,21,01,09,17.90
2016,08,21,01,10,17.90
2016,08,21,01,11,17.90
2016,08,21,01,12,17.90
2016,08,21,01,13,17.90
2016,08,21,01,14,17.90
2016,08,21,01,15,17.90
2016,08,21,01,16,17.90
2016,08,21,01,17,17.90
2016,08,21,01,18,17.90
2016,08,21,01,19,17.90
2016,08,21,01,20,17.90
2016,08,21,01,21,17.90
2016,08,21,01,22,17.90
2016,08,21,01,23,17.90
2016,08,21,01,24,17.90
2016,08,21,01,25,18.00
2016,08,21,01,26,18.00
2016,08,21,01,27,18.00
2016,08,21,01,28,18.00
2016,08,21,01,29,17.90
2016,08,21,01,30,17.90
2016,08,21,01,31,17.90
2016,08,21,01,32,17.90
2016,08,21,01,33,17.90
2016,08,21,01,34,17.90
2016,08,21,01,35,17.90
2016,08,21,01,36,17.80
2016,08,21,01,37,17.80
2016,08,21,01,38,17.80
2016,08,21,01,39,17.80
2016,08,21,01,40,17.80
2016,08,21,01,41,17.80
2016,08,21,01,42,17.80
2016,08,21,01,43,17.80
2016,08,21,01,44,17.70
2016,08,21,01,45,17.70
2016,08,21,01,46,17.70
2016,08,21,01,47,17.70
2016,08,21,01,48,17.70
2016,08,21,01,49,17.70
2016,08,21,01,50,17.70
2016,08,21,01,51,17.70
2016,08,21,01,52,17.70
2016,08,21,01,53,17.70
2016,08,21,01,54,17.60
2016,08,21,01,55,17.60
2016,08,21,01,56,17.60
2016,08,21,01,57,17.60
2016,08,21,01,58,17.60
2016,08,21,01,59,17.60
2016,08,21,02,00,17.60
2016,08,21,02,01,17.60
2016,08,21,02,02,17.50
2016,08,21,02,03,17.50
2016,08,21,02,04,17.50
2016,08,21,02,05,17.50
2016,08,21,02,06,17.40
2016,08,21,02,07,17.40
2016,08,21,02,08,17.40
2016,08,21,02,09,17.40
2016,08,21,02,10,17.40
2016,08,21,02,11,17.40
2016,08,21,02,12,17.40
2016,08,21,02,13,17.30
2016,08,21,02,14,17.30
2016,08,21,02,15,17.30
2016,08,21,02,16,17.30
2016,08,21,02,17,17.30
2016,08,21,02,18,17.30
2016,08,21,02,19,17.30
2016,08,21,02,20,17.30
2016,08,21,02,21,17.30
2016,08,21,02,22,17.30
2016,08,21,02,23,17.30
2016,08,21,02,24,17.30
2016,08,21,02,25,17.20
2016,08,21,02,26,17.20
2016,08,21,02,27,17.20
2016,08,21,02,28,17.20
2016,08,21,02,29,17.20
2016,08,21,02,30,17.20
2016,08,21,02,31,17.20
2016,08,21,02,32,17.20
2016,08,21,02,33,17.20
2016,08,21,02,34,17.10
2016,08,21,02,35,17.10
2016,08,21,02,36,17.10
2016,08,21,02,37,17.10
2016,08,21,02,38,17.10
2016,08,21,02,39,17.10
2016,08,21,02,40,17.10
2016,08,21,02,41,17.00
2016,08,21,02,42,17.00
2016,08,21,02,43,17.00
2016,08,21,02,44,16.90
2016,08,21,02,45,16.90
2016,08,21,02,46,16.90
2016,08,21,02,47,16.90
2016,08,21,02,48,16.80
2016,08,21,02,49,16.80
2016,08,21,02,50,16.80
2016,08,21,02,51,16.80
2016,08,21,02,52,16.80
2016,08,21,02,53,16.80
2016,08,21,02,54,16.70
2016,08,21,02,55,16.70
2016,08,21,02,56,16.70
2016,08,21,02,57,16.70
2016,08,21,02,58,16.70
2016,08,21,02,59,16.70
2016,08,21,03,00,16.60
2016,08,21,03,01,16.60
2016,08,21,03,02,16.60
2016,08,21,03,03,16.60
2016,08,21,03,04,16.60
2016,08,21,03,05,16.50
2016,08,21,03,06,16.50
2016,08,21,03,07,16.50
2016,08,21,03,08,16.50
2016,08,21,03,09,16.50
2016,08,21,03,10,16.40
2016,08,21,03,11,16.40
2016,08,21,03,12,16.40
2016,08,21,03,13,16.40
2016,08,21,03,14,16.40
2016,08,21,03,15,16.40
2016,08,21,03,16,16.40
2016,08,21,03,17,16.40
2016,08,21,03,18,16.30
2016,08,21,03,19,16.30
2016,08,21,03,20,16.30
2016,08,21,03,21,16.30
2016,08,21,03,22,16.30
2016,08,21,03,23,16.30
2016,08,21,03,24,16.30
2016,08,21,03,25,16.30
2016,08,21,03,26,16.30
2016,08,21,03,27,16.30
2016,08,21,03,28,16.30
2016,08,21,03,29,16.20
2016,08,21,03,30,16.20
2016,08,21,03,31,16.20
2016,08,21,03,32,16.20
2016,08,21,03,33,16.20
2016,08,21,03,34,16.20
2016,08,21,03,35,16.20
2016,08,21,03,36,16.20
2016,08,21,03,37,16.20
2016,08,21,03,38,16.20
2016,08,21,03,39,16.10
2016,08,21,03,40,16.10
2016,08,21,03,41,16.10
2016,08,21,03,42,16.10
2016,08,21,03,43,16.10
2016,08,21,03,44,16.10
2016,08,21,03,45,16.10
2016,08,21,03,46,16.10
2016,08,21,03,47,16.10
2016,08,21,03,48,16.10
2016,08,21,03,49,16.10
2016,08,21,03,50,16.10
2016,08,21,03,51,16.10
2016,08,21,03,52,16.10
2016,08,21,03,53,16.10
2016,08,21,03,54,16.10
2016,08,21,03,55,16.10
2016,08,21,03,56,16.10
2016,08,21,03,57,16.00
2016,08,21,03,58,16.00
2016,08,21,03,59,16.00
2016,08,21,04,00,16.00
2016,08,21,04,01,16.00
2016,08,21,04,02,15.90
2016,08,21,04,03,15.90
2016,08,21,04,04,15.90
2016,08,21,04,05,15.90
2016,08,21,04,06,15.90
2016,08,21,04,07,15.90
2016,08,21,04,08,15.90
2016,08,21,04,09,15.90
2016,08,21,04,10,15.90
2016,08,21,04,11,15.90
2016,08,21,04,12,15.90
2016,08,21,04,13,15.90
2016,08,21,04,14,15.90
2016,08,21,04,15,15.80
2016,08,21,04,16,15.80
2016,08,21,04,17,15.80
2016,08,21,04,18,15.80
2016,08,21,04,19,15.80
2016,08,21,04,20,15.80
2016,08,21,04,21,15.80
2016,08,21,04,22,15.70
2016,08,21,04,23,15.70
2016,08,21,04,24,15.70
2016,08,21,04,25,15.70
2016,08,21,04,26,15.70
2016,08,21,04,27,15.70
2016,08,21,04,28,15.70
2016,08,21,04,29,15.70
2016,08,21,04,30,15.70
2016,08,21,04,31,15.60
2016,08,21,04,32,15.60
2016,08,21,04,33,15.60
2016,08,21,04,34,15.60
2016,08,21,04,35,15.60
2016,08,21,04,36,15.60
2016,08,21,04,37,15.60
2016,08,21,04,38,15.50
2016,08,21,04,39,15.50
2016,08,21,04,40,15.50
2016,08,21,04,41,15.50
2016,08,21,04,42,15.50
2016,08,21,04,43,15.50
2016,08,21,04,44,15.50
2016,08,21,04,45,15.50
2016,08,21,04,46,15.40
2016,08,21,04,47,15.40
2016,08,21,04,48,15.40
2016,08,21,04,49,15.40
2016,08,21,04,50,15.40
2016,08,21,04,51,15.40
2016,08,21,04,52,15.40
2016,08,21,04,53,15.40
2016,08,21,04,54,15.30
2016,08,21,04,55,15.30
2016,08,21,04,56,15.30
2016,08,21,04,57,15.30
2016,08,21,04,58,15.30
2016,08,21,04,59,15.20
2016,08,21,05,00,15.20
2016,08,21,05,01,15.20
2016,08,21,05,02,15.20
2016,08,21,05,03,15.10
2016,08,21,05,04,15.10
2016,08,21,05,05,15.10
2016,08,21,05,06,15.10
2016,08,21,05,07,15.00
2016,08,21,05,08,15.00
2016,08,21,05,09,14.90
2016,08,21,05,10,14.90
2016,08,21,05,11,14.90
2016,08,21,05,12,14.90
2016,08,21,05,13,14.90
2016,08,21,05,14,14.80
2016,08,21,05,15,14.80
2016,08,21,05,16,14.80
2016,08,21,05,17,14.80
2016,08,21,05,18,14.80
2016,08,21,05,19,14.80
2016,08,21,05,20,14.70
2016,08,21,05,21,14.70
2016,08,21,05,22,14.70
2016,08,21,05,23,14.70
2016,08,21,05,24,14.70
2016,08,21,05,25,14.70
2016,08,21,05,26,14.70
2016,08,21,05,27,14.60
2016,08,21,05,28,14.60
2016,08,21,05,29,14.60
2016,08,21,05,30,14.60
2016,08,21,05,31,14.60
2016,08,21,05,32,14.60
2016,08,21,05,33,14.60
2016,08,21,05,34,14.50
2016,08,21,05,35,14.50
2016,08,21,05,36,14.50
2016,08,21,05,37,14.50
2016,08,21,05,38,14.50
2016,08,21,05,39,14.40
2016,08,21,05,40,14.40
2016,08,21,05,41,14.40
2016,08,21,05,42,14.40
2016,08,21,05,43,14.40
2016,08,21,05,44,14.30
2016,08,21,05,45,14.30
2016,08,21,05,46,14.30
2016,08,21,05,47,14.30
2016,08,21,05,48,14.30
2016,08,21,05,49,14.30
2016,08,21,05,50,14.30
2016,08,21,05,51,14.30
2016,08,21,05,52,14.30
2016,08,21,05,53,14.20
2016,08,21,05,54,14.20
2016,08,21,05,55,14.20
2016,08,21,05,56,14.20
2016,08,21,05,57,14.20
2016,08,21,05,58,14.20
2016,08,21,05,59,14.20
2016,08,21,06,00,14.20
2016,08,21,06,01,14.20
2016,08,21,06,02,14.20
2016,08,21,06,03,14.20
2016,08,21,06,04,14.10
2016,08,21,06,05,14.10
2016,08,21,06,06,14.10
2016,08,21,06,07,14.10
2016,08,21,06,08,14.10
2016,08,21,06,09,14.10
2016,08,21,06,10,14.00
2016,08,21,06,11,14.00
2016,08,21,06,12,14.00
2016,08,21,06,13,13.90
2016,08,21,06,14,13.90
2016,08,21,06,15,13.90
2016,08,21,06,16,13.90
2016,08,21,06,17,13.90
2016,08,21,06,18,13.90
2016,08,21,06,19,13.90
2016,08,21,06,20,13.80
2016,08,21,06,21,13.80
2016,08,21,06,22,13.80
2016,08,21,06,23,13.80
2016,08,21,06,24,13.80
2016,08,21,06,25,13.80
2016,08,21,06,26,13.80
2016,08,21,06,27,13.80
2016,08,21,06,28,13.80
2016,08,21,06,29,13.80
2016,08,21,06,30,13.70
2016,08,21,06,31,13.80
2016,08,21,06,32,13.80
2016,08,21,06,33,13.80
2016,08,21,06,34,13.80
2016,08,21,06,35,13.80
2016,08,21,06,36,13.80
2016,08,21,06,37,13.80
2016,08,21,06,38,13.80
2016,08,21,06,39,13.80
2016,08,21,06,40,13.80
2016,08,21,06,41,13.80
2016,08,21,06,42,13.80
2016,08,21,06,43,13.80
2016,08,21,06,44,13.80
2016,08,21,06,45,13.70
2016,08,21,06,46,13.70
2016,08,21,06,47,13.70
2016,08,21,06,48,13.70
2016,08,21,06,49,13.70
2016,08,21,06,50,13.70
2016,08,21,06,51,13.70
2016,08,21,06,52,13.70
2016,08,21,06,53,13.60
2016,08,21,06,54,13.60
2016,08,21,06,55,13.60
2016,08,21,06,56,13.60
2016,08,21,06,57,13.60
2016,08,21,06,58,13.60
2016,08,21,06,59,13.60
2016,08,21,07,00,13.60
2016,08,21,07,01,13.60
2016,08,21,07,02,13.60
2016,08,21,07,03,13.60
2016,08,21,07,04,13.60
2016,08,21,07,05,13.60
2016,08,21,07,06,13.60
2016,08,21,07,07,13.60
2016,08,21,07,08,13.70
2016,08,21,07,09,13.70
2016,08,21,07,10,13.70
2016,08,21,07,11,13.70
2016,08,21,07,12,13.70
2016,08,21,07,13,13.70
2016,08,21,07,14,13.70
2016,08,21,07,15,13.70
2016,08,21,07,16,13.80
2016,08,21,07,17,13.80
2016,08,21,07,18,13.80
2016,08,21,07,19,13.80
2016,08,21,07,20,13.80
2016,08,21,07,21,13.90
2016,08,21,07,22,13.90
2016,08,21,07,23,13.90
2016,08,21,07,24,13.90
2016,08,21,07,25,14.00
2016,08,21,07,26,14.00
2016,08,21,07,27,14.00
2016,08,21,07,28,14.00
2016,08,21,07,29,14.00
2016,08,21,07,30,14.10
2016,08,21,07,31,14.10
2016,08,21,07,32,14.10
2016,08,21,07,33,14.20
2016,08,21,07,34,14.20
2016,08,21,07,35,14.30
2016,08,21,07,36,14.30
2016,08,21,07,37,14.30
2016,08,21,07,38,14.40
2016,08,21,07,39,14.40
2016,08,21,07,40,14.40
2016,08,21,07,41,14.50
2016,08,21,07,42,14.60
2016,08,21,07,43,14.60
2016,08,21,07,44,14.60
2016,08,21,07,45,14.60
2016,08,21,07,46,14.70
2016,08,21,07,47,14.70
2016,08,21,07,48,14.70
2016,08,21,07,49,14.80
2016,08,21,07,50,14.80
2016,08,21,07,51,14.80
2016,08,21,07,52,14.90
2016,08,21,07,53,14.90
2016,08,21,07,54,14.90
2016,08,21,07,55,15.00
2016,08,21,07,56,15.00
2016,08,21,07,57,15.00
2016,08,21,07,58,15.10
2016,08,21,07,59,15.10
2016,08,21,08,00,15.10
2016,08,21,08,01,15.10
2016,08,21,08,02,15.20
2016,08,21,08,03,15.20
2016,08,21,08,04,15.20
2016,08,21,08,05,15.20
2016,08,21,08,06,15.20
2016,08,21,08,07,15.20
2016,08,21,08,08,15.30
2016,08,21,08,09,15.30
2016,08,21,08,10,15.30
2016,08,21,08,11,15.30
2016,08,21,08,12,15.40
2016,08,21,08,13,15.40
2016,08,21,08,14,15.40
2016,08,21,08,15,15.40
2016,08,21,08,16,15.50
2016,08,21,08,17,15.50
2016,08,21,08,18,15.50
2016,08,21,08,19,15.60
2016,08,21,08,20,15.60
2016,08,21,08,21,15.60
2016,08,21,08,22,15.70
2016,08,21,08,23,15.70
2016,08,21,08,24,15.70
2016,08,21,08,25,15.70
2016,08,21,08,26,15.80
2016,08,21,08,27,15.80
2016,08,21,08,28,15.80
2016,08,21,08,29,15.90
2016,08,21,08,30,15.90
2016,08,21,08,31,15.90
2016,08,21,08,32,15.90
2016,08,21,08,33,15.90
2016,08,21,08,34,15.90
2016,08,21,08,35,15.90
2016,08,21,08,36,15.90
2016,08,21,08,37,15.90
2016,08,21,08,38,15.90
2016,08,21,08,39,15.90
2016,08,21,08,40,15.90
2016,08,21,08,41,15.90
2016,08,21,08,42,15.90
2016,08,21,08,43,15.90
2016,08,21,08,44,16.00
2016,08,21,08,45,16.00
2016,08,21,08,46,16.00
2016,08,21,08,47,16.10
2016,08,21,08,48,16.10
2016,08,21,08,49,16.10
2016,08,21,08,50,16.20
2016,08,21,08,51,16.20
2016,08,21,08,52,16.20
2016,08,21,08,53,16.30
2016,08,21,08,54,16.30
2016,08,21,08,55,16.30
2016,08,21,08,56,16.40
2016,08,21,08,57,16.40
2016,08,21,08,58,16.40
2016,08,21,08,59,16.40
2016,08,21,09,00,16.40
2016,08,21,09,01,16.50
2016,08,21,09,02,16.60
2016,08,21,09,03,16.60
2016,08,21,09,04,16.70
2016,08,21,09,05,16.70
2016,08,21,09,06,16.80
2016,08,21,09,07,16.80
2016,08,21,09,08,16.80
2016,08,21,09,09,16.90
2016,08,21,09,10,16.90
2016,08,21,09,11,16.90
2016,08,21,09,12,16.90
2016,08,21,09,13,17.00
2016,08,21,09,14,17.00
2016,08,21,09,15,17.00
2016,08,21,09,16,17.10
2016,08,21,09,17,17.10
2016,08,21,09,18,17.20
2016,08,21,09,19,17.20
2016,08,21,09,20,17.20
2016,08,21,09,21,17.30
2016,08,21,09,22,17.30
2016,08,21,09,23,17.30
2016,08,21,09,24,17.40
2016,08,21,09,25,17.40
2016,08,21,09,26,17.40
2016,08,21,09,27,17.50
2016,08,21,09,28,17.50
2016,08,21,09,29,17.60
2016,08,21,09,30,17.70
2016,08,21,09,31,17.70
2016,08,21,09,32,17.70
2016,08,21,09,33,17.70
2016,08,21,09,34,17.80
2016,08,21,09,35,17.80
2016,08,21,09,36,17.80
2016,08,21,09,37,17.90
2016,08,21,09,38,17.90
2016,08,21,09,39,17.90
2016,08,21,09,40,18.00
2016,08,21,09,41,18.00
2016,08,21,09,42,18.00
2016,08,21,09,43,18.10
2016,08,21,09,44,18.20
2016,08,21,09,45,18.20
2016,08,21,09,46,18.20
2016,08,21,09,47,18.20
2016,08,21,09,48,18.20
2016,08,21,09,49,18.20
2016,08,21,09,50,18.30
2016,08,21,09,51,18.30
2016,08,21,09,52,18.30
2016,08,21,09,53,18.40
2016,08,21,09,54,18.40
2016,08,21,09,55,18.50
2016,08,21,09,56,18.50
2016,08,21,09,57,18.60
2016,08,21,09,58,18.60
2016,08,21,09,59,18.60
2016,08,21,10,00,18.70
2016,08,21,10,01,18.70
2016,08,21,10,02,18.70
2016,08,21,10,03,18.80
2016,08,21,10,04,18.80
2016,08,21,10,05,18.80
2016,08,21,10,06,18.90
2016,08,21,10,07,18.90
2016,08,21,10,08,18.90
2016,08,21,10,09,18.90
2016,08,21,10,10,18.90
2016,08,21,10,11,18.90
2016,08,21,10,12,19.00
2016,08,21,10,13,19.00
2016,08,21,10,14,19.00
2016,08,21,10,15,19.10
2016,08,21,10,16,19.10
2016,08,21,10,17,19.00
2016,08,21,10,18,19.00
2016,08,21,10,19,18.90
2016,08,21,10,20,18.90
2016,08,21,10,21,18.80
2016,08,21,10,22,18.70
2016,08,21,10,23,18.60
2016,08,21,10,24,18.50
2016,08,21,10,25,18.40
2016,08,21,10,26,18.30
2016,08,21,10,27,18.30
2016,08,21,10,28,18.30
2016,08,21,10,29,18.30
2016,08,21,10,30,18.40
2016,08,21,10,31,18.50
2016,08,21,10,32,18.50
2016,08,21,10,33,18.60
2016,08,21,10,34,18.70
2016,08,21,10,35,18.80
2016,08,21,10,36,18.90
2016,08,21,10,37,19.00
2016,08,21,10,38,19.10
2016,08,21,10,39,19.10
2016,08,21,10,40,19.10
2016,08,21,10,41,19.10
2016,08,21,10,42,19.10
2016,08,21,10,43,19.00
2016,08,21,10,44,19.00
2016,08,21,10,45,18.90
2016,08,21,10,46,18.90
2016,08,21,10,47,18.90
2016,08,21,10,48,18.90
2016,08,21,10,49,18.90
2016,08,21,10,50,18.90
2016,08,21,10,51,18.90
2016,08,21,10,52,18.90
2016,08,21,10,53,19.00
2016,08,21,10,54,19.00
2016,08,21,10,55,19.00
2016,08,21,10,56,19.10
2016,08,21,10,57,19.10
2016,08,21,10,58,19.10
2016,08,21,10,59,19.20
2016,08,21,11,00,19.20
2016,08,21,11,01,19.20
2016,08,21,11,02,19.30
2016,08,21,11,03,19.30
2016,08,21,11,04,19.30
2016,08,21,11,05,19.30
2016,08,21,11,06,19.30
2016,08,21,11,07,19.30
2016,08,21,11,08,19.30
2016,08,21,11,09,19.20
2016,08,21,11,10,19.10
2016,08,21,11,11,19.00
2016,08,21,11,12,18.90
2016,08,21,11,13,18.90
2016,08,21,11,14,18.80
2016,08,21,11,15,18.90
2016,08,21,11,16,18.90
2016,08,21,11,17,19.00
2016,08,21,11,18,19.00
2016,08,21,11,19,19.10
2016,08,21,11,20,19.20
2016,08,21,11,21,19.20
2016,08,21,11,22,19.30
2016,08,21,11,23,19.40
2016,08,21,11,24,19.50
2016,08,21,11,25,19.50
2016,08,21,11,26,19.50
2016,08,21,11,27,19.60
2016,08,21,11,28,19.60
2016,08,21,11,29,19.70
2016,08,21,11,30,19.70
2016,08,21,11,31,19.70
2016,08,21,11,32,19.80
2016,08,21,11,33,19.80
2016,08,21,11,34,19.90
2016,08,21,11,35,20.00
2016,08,21,11,36,20.10
2016,08,21,11,37,20.20
2016,08,21,11,38,20.20
2016,08,21,11,39,20.20
2016,08,21,11,40,20.30
2016,08,21,11,41,20.40
2016,08,21,11,42,20.40
2016,08,21,11,43,20.40
2016,08,21,11,44,20.40
2016,08,21,11,45,20.50
2016,08,21,11,46,20.60
2016,08,21,11,47,20.60
2016,08,21,11,48,20.70
2016,08,21,11,49,20.70
2016,08,21,11,50,20.80
2016,08,21,11,51,20.90
2016,08,21,11,52,21.00
2016,08,21,11,53,21.10
2016,08,21,11,54,21.10
2016,08,21,11,55,21.20
2016,08,21,11,56,21.20
2016,08,21,11,57,21.30
2016,08,21,11,58,21.20
2016,08,21,11,59,21.10
2016,08,21,12,00,21.00
2016,08,21,12,01,21.00
2016,08,21,12,02,21.00
2016,08,21,12,03,21.00
2016,08,21,12,04,20.90
2016,08,21,12,05,20.90
2016,08,21,12,06,20.70
2016,08,21,12,07,20.60
2016,08,21,12,08,20.60
2016,08,21,12,09,20.60
2016,08,21,12,10,20.60
2016,08,21,12,11,20.60
2016,08,21,12,12,20.70
2016,08,21,12,13,20.80
2016,08,21,12,14,20.80
2016,08,21,12,15,20.80
2016,08,21,12,16,20.80
2016,08,21,12,17,20.90
2016,08,21,12,18,20.90
2016,08,21,12,19,20.90
2016,08,21,12,20,20.90
2016,08,21,12,21,20.90
2016,08,21,12,22,20.90
2016,08,21,12,23,20.90
2016,08,21,12,24,20.90
2016,08,21,12,25,20.90
2016,08,21,12,26,20.90
2016,08,21,12,27,20.90
2016,08,21,12,28,20.90
2016,08,21,12,29,20.90
2016,08,21,12,30,20.90
2016,08,21,12,31,20.90
2016,08,21,12,32,21.00
2016,08,21,12,33,21.00
2016,08,21,12,34,21.00
2016,08,21,12,35,21.00
2016,08,21,12,36,21.00
2016,08,21,12,37,21.10
2016,08,21,12,38,21.10
2016,08,21,12,39,21.10
2016,08,21,12,40,21.20
2016,08,21,12,41,21.10
2016,08,21,12,42,21.10
2016,08,21,12,43,21.00
2016,08,21,12,44,21.00
2016,08,21,12,45,20.90
2016,08,21,12,46,20.90
2016,08,21,12,47,20.90
2016,08,21,12,48,20.90
2016,08,21,12,49,20.80
2016,08,21,12,50,20.80
2016,08,21,12,51,20.80
2016,08,21,12,52,20.80
2016,08,21,12,53,20.80
2016,08,21,12,54,20.80
2016,08,21,12,55,20.80
2016,08,21,12,56,20.80
2016,08,21,12,57,20.80
2016,08,21,12,58,20.70
2016,08,21,12,59,20.60
2016,08,21,13,00,20.50
2016,08,21,13,01,20.40
2016,08,21,13,02,20.30
2016,08,21,13,03,20.20
2016,08,21,13,04,20.20
2016,08,21,13,05,20.20
2016,08,21,13,06,20.20
2016,08,21,13,07,20.20
2016,08,21,13,08,20.20
2016,08,21,13,09,20.20
2016,08,21,13,10,20.10
2016,08,21,13,11,20.10
2016,08,21,13,12,20.10
2016,08,21,13,13,20.00
2016,08,21,13,14,20.00
2016,08,21,13,15,20.00
2016,08,21,13,16,20.00
2016,08,21,13,17,20.00
2016,08,21,13,18,19.90
2016,08,21,13,19,19.90
2016,08,21,13,20,19.90
2016,08,21,13,21,19.80
2016,08,21,13,22,19.80
2016,08,21,13,23,19.90
2016,08,21,13,24,19.90
2016,08,21,13,25,19.90
2016,08,21,13,26,19.90
2016,08,21,13,27,20.00
2016,08,21,13,28,20.00
2016,08,21,13,29,20.00
2016,08,21,13,30,20.10
2016,08,21,13,31,20.10
2016,08,21,13,32,20.10
2016,08,21,13,33,20.20
2016,08,21,13,34,20.20
2016,08,21,13,35,20.10
2016,08,21,13,36,20.10
2016,08,21,13,37,20.10
2016,08,21,13,38,20.00
2016,08,21,13,39,20.00
2016,08,21,13,40,19.90
2016,08,21,13,41,19.90
2016,08,21,13,42,19.80
2016,08,21,13,43,19.80
2016,08,21,13,44,19.80
2016,08,21,13,45,19.80
2016,08,21,13,46,19.90
2016,08,21,13,47,19.90
2016,08,21,13,48,20.00
2016,08,21,13,49,20.00
2016,08,21,13,50,20.10
2016,08,21,13,51,20.10
2016,08,21,13,52,20.20
2016,08,21,13,53,20.20
2016,08,21,13,54,20.20
2016,08,21,13,55,20.20
2016,08,21,13,56,20.20
2016,08,21,13,57,20.20
2016,08,21,13,58,20.20
2016,08,21,13,59,20.20
2016,08,21,14,00,20.10
2016,08,21,14,01,20.10
2016,08,21,14,02,20.20
2016,08,21,14,03,20.20
2016,08,21,14,04,20.20
2016,08,21,14,05,20.20
2016,08,21,14,06,20.30
2016,08,21,14,07,20.30
2016,08,21,14,08,20.40
2016,08,21,14,09,20.40
2016,08,21,14,10,20.50
2016,08,21,14,11,20.60
2016,08,21,14,12,20.60
2016,08,21,14,13,20.60
2016,08,21,14,14,20.60
2016,08,21,14,15,20.50
2016,08,21,14,16,20.50
2016,08,21,14,17,20.40
2016,08,21,14,18,20.40
2016,08,21,14,19,20.40
2016,08,21,14,20,20.30
2016,08,21,14,21,20.20
2016,08,21,14,22,20.20
2016,08,21,14,23,20.10
2016,08,21,14,24,20.10
2016,08,21,14,25,20.20
2016,08,21,14,26,20.20
2016,08,21,14,27,20.30
2016,08,21,14,28,20.30
2016,08,21,14,29,20.30
2016,08,21,14,30,20.30
2016,08,21,14,31,20.30
2016,08,21,14,32,20.30
2016,08,21,14,33,20.40
2016,08,21,14,34,20.50
2016,08,21,14,35,20.50
2016,08,21,14,36,20.50
2016,08,21,14,37,20.50
2016,08,21,14,38,20.60
2016,08,21,14,39,20.60
2016,08,21,14,40,20.70
2016,08,21,14,41,20.70
2016,08,21,14,42,20.70
2016,08,21,14,43,20.70
2016,08,21,14,44,20.80
2016,08,21,14,45,20.90
2016,08,21,14,46,21.00
2016,08,21,14,47,21.00
2016,08,21,14,48,21.10
2016,08,21,14,49,21.00
2016,08,21,14,50,21.00
2016,08,21,14,51,21.00
2016,08,21,14,52,21.00
2016,08,21,14,53,21.10
2016,08,21,14,54,21.10
2016,08,21,14,55,21.20
2016,08,21,14,56,21.20
2016,08,21,14,57,21.20
2016,08,21,14,58,21.10
2016,08,21,14,59,21.10
2016,08,21,15,00,21.10
2016,08,21,15,01,21.10
2016,08,21,15,02,21.10
2016,08,21,15,03,21.10
2016,08,21,15,04,21.10
2016,08,21,15,05,21.20
2016,08,21,15,06,21.20
2016,08,21,15,07,21.20
2016,08,21,15,08,21.20
2016,08,21,15,09,21.20
2016,08,21,15,10,21.30
2016,08,21,15,11,21.30
2016,08,21,15,12,21.30
2016,08,21,15,13,21.30
2016,08,21,15,14,21.20
2016,08,21,15,15,21.10
2016,08,21,15,16,20.90
2016,08,21,15,17,20.80
2016,08,21,15,18,20.70
2016,08,21,15,19,20.60
2016,08,21,15,20,20.60
2016,08,21,15,21,20.60
2016,08,21,15,22,20.60
2016,08,21,15,23,20.50
2016,08,21,15,24,20.40
2016,08,21,15,25,20.30
2016,08,21,15,26,20.30
2016,08,21,15,27,20.30
2016,08,21,15,28,20.30
2016,08,21,15,29,20.30
2016,08,21,15,30,20.30
2016,08,21,15,31,20.30
2016,08,21,15,32,20.30
2016,08,21,15,33,20.30
2016,08,21,15,34,20.30
2016,08,21,15,35,20.30
2016,08,21,15,36,20.30
2016,08,21,15,37,20.30
2016,08,21,15,38,20.40
2016,08,21,15,39,20.40
2016,08,21,15,40,20.40
2016,08,21,15,41,20.40
2016,08,21,15,42,20.40
2016,08,21,15,43,20.40
2016,08,21,15,44,20.40
2016,08,21,15,45,20.40
2016,08,21,15,46,20.30
2016,08,21,15,47,20.30
2016,08,21,15,48,20.30
2016,08,21,15,49,20.40
2016,08,21,15,50,20.40
2016,08,21,15,51,20.50
2016,08,21,15,52,20.50
2016,08,21,15,53,20.60
2016,08,21,15,54,20.70
2016,08,21,15,55,20.80
2016,08,21,15,56,20.90
2016,08,21,15,57,21.00
2016,08,21,15,58,21.10
2016,08,21,15,59,21.20
2016,08,21,16,00,21.30
2016,08,21,16,01,21.40
2016,08,21,16,02,21.60
2016,08,21,16,03,21.70
2016,08,21,16,04,21.70
2016,08,21,16,05,21.80
2016,08,21,16,06,21.90
2016,08,21,16,07,21.90
2016,08,21,16,08,22.00
2016,08,21,16,09,22.10
2016,08,21,16,10,22.10
2016,08,21,16,11,22.10
2016,08,21,16,12,22.00
2016,08,21,16,13,22.00
2016,08,21,16,14,22.00
2016,08,21,16,15,21.90
2016,08,21,16,16,21.80
2016,08,21,16,17,21.70
2016,08,21,16,18,21.60
2016,08,21,16,19,21.50
2016,08,21,16,20,21.30
2016,08,21,16,21,21.20
2016,08,21,16,22,21.00
2016,08,21,16,23,20.90
2016,08,21,16,24,20.80
2016,08,21,16,25,20.80
2016,08,21,16,26,20.80
2016,08,21,16,27,20.70
2016,08,21,16,28,20.70
2016,08,21,16,29,20.60
2016,08,21,16,30,20.50
2016,08,21,16,31,20.50
2016,08,21,16,32,20.40
2016,08,21,16,33,20.30
2016,08,21,16,34,20.30
2016,08,21,16,35,20.30
2016,08,21,16,36,20.30
2016,08,21,16,37,20.30
2016,08,21,16,38,20.30
2016,08,21,16,39,20.30
2016,08,21,16,40,20.40
2016,08,21,16,41,20.40
2016,08,21,16,42,20.40
2016,08,21,16,43,20.50
2016,08,21,16,44,20.50
2016,08,21,16,45,20.50
2016,08,21,16,46,20.50
2016,08,21,16,47,20.50
2016,08,21,16,48,20.50
2016,08,21,16,49,20.60
2016,08,21,16,50,20.60
2016,08,21,16,51,20.60
2016,08,21,16,52,20.60
2016,08,21,16,53,20.50
2016,08,21,16,54,20.50
2016,08,21,16,55,20.50
2016,08,21,16,56,20.50
2016,08,21,16,57,20.40
2016,08,21,16,58,20.50
2016,08,21,16,59,20.50
2016,08,21,17,00,20.60
2016,08,21,17,01,20.60
2016,08,21,17,02,20.60
2016,08,21,17,03,20.70
2016,08,21,17,04,20.70
2016,08,21,17,05,20.70
2016,08,21,17,06,20.70
2016,08,21,17,07,20.70
2016,08,21,17,08,20.80
2016,08,21,17,09,20.80
2016,08,21,17,10,20.80
2016,08,21,17,11,20.80
2016,08,21,17,12,20.80
2016,08,21,17,13,20.80
2016,08,21,17,14,20.80
2016,08,21,17,15,20.80
2016,08,21,17,16,20.80
2016,08,21,17,17,20.80
2016,08,21,17,18,20.80
2016,08,21,17,19,20.90